DELTA 1 DEB, 40768

Orbit data source: Space-Track

DELTA 1 DEB, 40768 is space debris in SSO originally from a launch on Thu, 29 Jul 1976 UTC launched from the Air Force Western Test Range (AFWTR). Debris objects in space refer to the collection of defunct objects orbiting the Earth. Examples of debris include non-operational satellites, rocket bodies, and fragments generated from explosions, collisions, or faulty payload assembly.

Loading next visibility...
Identifier
40768, 1976-077GM
Orbit
SSO
Country
Flag of USUS
Related business
Manufacturer
Unknown
Mission
Spacecraft
Bus & Motor
Unknown
Mass
Unknown
Launch date (UTC)
1976-07-29 (50 years ago)
Launch vehicle
Unknown
Launch site
Air Force Western Test Range (AFWTR)
Object type
Payload
Rocket body
Debris
Shape & HBR
Unknown shape, 0.1 m
Radar Cross Section
Small (<0.1 m²)

Expand to show TLE details & history
Last TLE update: 13 hours ago

TLE from 13 hours ago
0 DELTA 1 DEB
1 40768U 76077GM  26130.21350508  .00000349  00000-0  21268-2 0  9995
2 40768 101.4022 111.8559 0053556 107.3092 253.3856 12.64174425574254
Epoch: 2026-05-10T05:07Z
TLE epoch observation values (Epoch: 2026-05-10T05:07:26.838Z)
Latitude
-0.00006°
Longitude
166.97428°
Altitude
1,420.494 km
Speed
7.145 km/s
True Right ascension
07h 27m 25s
True Declination
0° 00' 00"
Sunlit
Object was in daylight at epoch
Visualization orbit readout
Latitude
Unknown
Longitude
Unknown
Altitude
Unknown
Speed
Unknown
Apparent Right ascension
Unknown
Apparent Declination
Unknown
Sunlit
N/A
Visualization observer readout
Local Sidereal Time
02:30:57
Azimuth
Unknown
Elevation
Unknown
Doppler factor
Unknown
Orbital elements
Apogee altitude
1,444.944 km
Perigee altitude
1,361.596 km
Semi-major axis
7,781.407 km
Eccentricity
0.00536
Inclination
101.4022°
RAAN
111.8559°
Arg. of periapsis
107.3092°
True anomaly
252.79865°
Mean anomaly
253.3856°
Eccentric anomaly
253.09201°
Mean motion
3.16196 °/min
Orbital period
113.85 mins
BSTAR
0.0021268
Loading maneuver chart data...
Computing Atmospheric mass density...
Loading historical data...
Loading historical data...
Loading historical data...
Loading historical data...
Loading historical data...
Loading historical data...
Loading historical data...

Documentation

Showing up to 5 results
|